QPF
0.02 0.02 0.01 0.01 0.01 0.01 0.01 0.01 0.01 0.01 0.01 0.00 0.00 0.00 0.00 0.01 0.02 0.02 0.01 0.02 0.02 0.02 0.02 0.02 0.02 0.02 0.02 0.03 0.03 0.02 0.01 0.01 0.01 0.01 0.02 0.03 0.03 0.05
0.01 0.01 0.01 0.01 0.01 0.01 0.01 0.01 0.01 0.01 0.01 0.00 0.00 0.00 0.01 0.01 0.02 0.02 0.02 0.03 0.02 0.02 0.02 0.02 0.02 0.03 0.03 0.03 0.03 0.02 0.01 0.01 0.01 0.01 0.02 0.02 0.03 0.04
0.01 0.01 0.00 0.01 0.01 0.01 0.01 0.01 0.01 0.01 0.01 0.00 0.00 0.00 0.00 0.01 0.02 0.03 0.03 0.03 0.03 0.03 0.02 0.02 0.02 0.02 0.02 0.02 0.02 0.01 0.01 0.01 0.01 0.01 0.02 0.02 0.03 0.03
0.00 0.00 0.00 0.00 0.01 0.01 0.01 0.01 0.01 0.01 0.01 0.01 0.00 0.00 0.00 0.01 0.01 0.02 0.03 0.04 0.04 0.05 0.04 0.03 0.03 0.03 0.03 0.02 0.02 0.01 0.01 0.01 0.01 0.01 0.01 0.02 0.03 0.03
0.00 0.00 0.00 0.00 0.00 0.00 0.00 0.01 0.01 0.01 0.01 0.01 0.01 0.01 0.01 0.01 0.01 0.01 0.02 0.02 0.04 0.05 0.05 0.04 0.04 0.04 0.04 0.04 0.03 0.02 0.01 0.01 0.01 0.01 0.01 0.02 0.02 0.03
0.00 0.00 0.00 0.00 0.00 0.00 0.00 0.00 0.00 0.01 0.01 0.01 0.02 0.01 0.01 0.01 0.02 0.02 0.01 0.01 0.02 0.03 0.04 0.04 0.04 0.04 0.03 0.03 0.03 0.02 0.02 0.02 0.01 0.01 0.01 0.01 0.02 0.02
0.01 0.01 0.00 0.01 0.01 0.00 0.00 0.01 0.01 0.01 0.01 0.01 0.02 0.02 0.01 0.01 0.02 0.02 0.02 0.02 0.02 0.02 0.03 0.03 0.03 0.02 0.02 0.02 0.02 0.02 0.02 0.02 0.03 0.02 0.01 0.01 0.02 0.02
0.01 0.01 0.01 0.01 0.01 0.01 0.01 0.01 0.01 0.01 0.01 0.01 0.02 0.02 0.01 0.01 0.01 0.02 0.02 0.02 0.02 0.02 0.02 0.02 0.03 0.03 0.02 0.01 0.01 0.01 0.01 0.02 0.03 0.04 0.03 0.02 0.02 0.02
0.01 0.01 0.01 0.01 0.01 0.01 0.01 0.01 0.01 0.01 0.01 0.01 0.02 0.01 0.01 0.01 0.01 0.02 0.02 0.02 0.01 0.01 0.01 0.02 0.02 0.03 0.02 0.02 0.02 0.01 0.01 0.01 0.01 0.03 0.04 0.04 0.03 0.03
0.01 0.01 0.01 0.01 0.01 0.01 0.01 0.01 0.00 0.00 0.01 0.01 0.01 0.01 0.01 0.01 0.01 0.02 0.02 0.02 0.02 0.02 0.02 0.02 0.02 0.02 0.01 0.01 0.01 0.01 0.01 0.01 0.01 0.01 0.02 0.03 0.03 0.03
0.01 0.01 0.01 0.01 0.01 0.01 0.01 0.01 0.01 0.01 0.01 0.01 0.01 0.01 0.01 0.01 0.01 0.02 0.02 0.02 0.03 0.03 0.02 0.02 0.02 0.02 0.01 0.01 0.01 0.01 0.01 0.01 0.01 0.02 0.01 0.01 0.02 0.02
0.01 0.01 0.01 0.01 0.01 0.01 0.01 0.01 0.01 0.01 0.01 0.01 0.01 0.01 0.01 0.01 0.01 0.02 0.02 0.02 0.03 0.03 0.02 0.02 0.02 0.02 0.02 0.01 0.01 0.01 0.01 0.01 0.01 0.01 0.01 0.01 0.01 0.01
0.01 0.01 0.01 0.01 0.02 0.02 0.01 0.01 0.01 0.01 0.01 0.01 0.01 0.01 0.01 0.02 0.02 0.02 0.02 0.02 0.02 0.02 0.01 0.02 0.02 0.02 0.02 0.02 0.01 0.01 0.01 0.01 0.01 0.00 0.01 0.01 0.01 0.02
0.01 0.01 0.01 0.01 0.01 0.01 0.01 0.01 0.01 0.02 0.02 0.02 0.02 0.02 0.02 0.02 0.02 0.02 0.02 0.03 0.02 0.02 0.01 0.01 0.02 0.02 0.03 0.02 0.01 0.01 0.01 0.01 0.01 0.00 0.00 0.01 0.01 0.01
0.01 0.01 0.01 0.01 0.01 0.01 0.01 0.01 0.01 0.01 0.02 0.02 0.02 0.02 0.02 0.02 0.02 0.02 0.03 0.03 0.03 0.03 0.03 0.02 0.02 0.02 0.03 0.02 0.02 0.01 0.01 0.01 0.01 0.01 0.01 0.01 0.01 0.01
0.01 0.01 0.01 0.01 0.01 0.01 0.01 0.01 0.01 0.01 0.01 0.02 0.01 0.01 0.01 0.01 0.02 0.02 0.03 0.03 0.04 0.04 0.03 0.03 0.02 0.03 0.03 0.02 0.02 0.02 0.01 0.01 0.01 0.01 0.01 0.01 0.01 0.01
0.01 0.02 0.01 0.01 0.02 0.02 0.01 0.01 0.01 0.01 0.01 0.01 0.01 0.01 0.01 0.02 0.02 0.02 0.02 0.03 0.03 0.03 0.03 0.02 0.02 0.02 0.02 0.02 0.02 0.02 0.02 0.02 0.02 0.02 0.02 0.01 0.01 0.01
0.01 0.02 0.01 0.01 0.01 0.01 0.02 0.01 0.01 0.01 0.01 0.01 0.01 0.01 0.01 0.02 0.02 0.03 0.03 0.03 0.03 0.03 0.03 0.02 0.02 0.02 0.02 0.02 0.02 0.02 0.02 0.02 0.02 0.02 0.01 0.01 0.01 0.01
0.02 0.02 0.01 0.01 0.01 0.01 0.02 0.02 0.01 0.01 0.01 0.01 0.01 0.01 0.02 0.02 0.02 0.03 0.03 0.03 0.03 0.04 0.03 0.02 0.02 0.03 0.02 0.02 0.02 0.02 0.02 0.02 0.02 0.02 0.01 0.01 0.01 0.01
0.02 0.02 0.01 0.01 0.01 0.01 0.02 0.02 0.01 0.01 0.01 0.01 0.01 0.02 0.02 0.02 0.02 0.03 0.03 0.02 0.02 0.03 0.04 0.03 0.02 0.02 0.03 0.02 0.02 0.02 0.02 0.02 0.02 0.02 0.01 0.01 0.01 0.01
0.01 0.01 0.01 0.01 0.01 0.02 0.02 0.02 0.02 0.02 0.01 0.01 0.02 0.02 0.02 0.02 0.02 0.02 0.02 0.03 0.02 0.03 0.04 0.03 0.02 0.02 0.02 0.02 0.03 0.02 0.01 0.01 0.01 0.02 0.01 0.01 0.01 0.01
0.01 0.02 0.01 0.01 0.02 0.02 0.02 0.02 0.02 0.02 0.02 0.02 0.02 0.02 0.02 0.02 0.02 0.02 0.03 0.03 0.02 0.02 0.03 0.03 0.03 0.03 0.03 0.03 0.03 0.02 0.01 0.01 0.01 0.01 0.01 0.01 0.02 0.02
0.02 0.02 0.02 0.02 0.02 0.02 0.02 0.02 0.02 0.02 0.02 0.02 0.02 0.02 0.02 0.02 0.02 0.02 0.03 0.03 0.03 0.02 0.03 0.03 0.03 0.03 0.03 0.03 0.03 0.02 0.01 0.01 0.01 0.01 0.01 0.01 0.01 0.01
MSLP
1013.23 1013.74 1014.22 1014.68 1015.11 1015.55 1016.03 1016.58 1017.22 1017.97 1018.81 1019.69 1020.55 1021.32 1021.97 1022.43 1022.71 1022.81 1022.77 1022.64 1022.47 1022.29 1022.13 1022.00 1021.88 1021.76 1021.60 1021.39 1021.11 1020.78 1020.39 1019.99 1019.57 1019.16 1018.77 1018.38 1017.99 1017.58
1012.70 1013.20 1013.68 1014.14 1014.60 1015.07 1015.60 1016.21 1016.93 1017.77 1018.68 1019.64 1020.58 1021.42 1022.10 1022.59 1022.88 1022.97 1022.89 1022.71 1022.47 1022.22 1022.00 1021.81 1021.65 1021.50 1021.32 1021.11 1020.85 1020.53 1020.17 1019.78 1019.37 1018.97 1018.57 1018.16 1017.75 1017.32
1012.24 1012.77 1013.27 1013.76 1014.24 1014.75 1015.33 1015.99 1016.76 1017.65 1018.61 1019.62 1020.59 1021.45 1022.16 1022.66 1022.93 1023.00 1022.89 1022.67 1022.38 1022.08 1021.80 1021.57 1021.37 1021.19 1021.01 1020.80 1020.55 1020.25 1019.91 1019.54 1019.15 1018.75 1018.35 1017.94 1017.51 1017.07
1011.93 1012.51 1013.07 1013.60 1014.12 1014.67 1015.28 1015.97 1016.77 1017.67 1018.65 1019.66 1020.63 1021.50 1022.19 1022.67 1022.93 1022.98 1022.85 1022.59 1022.27 1021.93 1021.61 1021.34 1021.11 1020.91 1020.71 1020.50 1020.25 1019.96 1019.63 1019.26 1018.88 1018.49 1018.09 1017.69 1017.26 1016.80
1011.84 1012.50 1013.12 1013.70 1014.27 1014.86 1015.49 1016.19 1016.99 1017.88 1018.84 1019.82 1020.75 1021.58 1022.24 1022.70 1022.93 1022.96 1022.81 1022.54 1022.19 1021.83 1021.50 1021.20 1020.94 1020.71 1020.48 1020.25 1019.98 1019.67 1019.33 1018.97 1018.58 1018.19 1017.79 1017.39 1016.97 1016.52
1012.00 1012.74 1013.43 1014.08 1014.69 1015.30 1015.94 1016.64 1017.41 1018.26 1019.17 1020.09 1020.96 1021.74 1022.35 1022.77 1022.98 1023.00 1022.84 1022.57 1022.22 1021.86 1021.50 1021.18 1020.89 1020.62 1020.36 1020.08 1019.77 1019.42 1019.05 1018.65 1018.25 1017.84 1017.44 1017.04 1016.63 1016.19
1012.40 1013.22 1013.98 1014.68 1015.33 1015.95 1016.59 1017.26 1017.99 1018.78 1019.61 1020.45 1021.26 1021.96 1022.52 1022.90 1023.10 1023.11 1022.96 1022.71 1022.37 1022.02 1021.66 1021.32 1021.00 1020.68 1020.36 1020.02 1019.64 1019.23 1018.79 1018.34 1017.89 1017.46 1017.04 1016.64 1016.24 1015.81
1013.00 1013.89 1014.70 1015.43 1016.10 1016.73 1017.35 1017.99 1018.66 1019.38 1020.13 1020.89 1021.61 1022.24 1022.75 1023.10 1023.28 1023.30 1023.18 1022.95 1022.65 1022.31 1021.96 1021.61 1021.25 1020.89 1020.50 1020.07 1019.61 1019.11 1018.59 1018.07 1017.56 1017.08 1016.63 1016.21 1015.81 1015.40
1013.72 1014.65 1015.49 1016.25 1016.93 1017.56 1018.15 1018.75 1019.36 1020.01 1020.68 1021.36 1022.00 1022.57 1023.03 1023.35 1023.53 1023.57 1023.48 1023.28 1023.02 1022.71 1022.37 1022.01 1021.63 1021.21 1020.75 1020.24 1019.68 1019.09 1018.47 1017.86 1017.27 1016.73 1016.24 1015.79 1015.38 1014.97
1014.49 1015.43 1016.30 1017.06 1017.75 1018.36 1018.93 1019.49 1020.06 1020.64 1021.24 1021.84 1022.41 1022.92 1023.34 1023.64 1023.82 1023.87 1023.82 1023.66 1023.43 1023.16 1022.83 1022.47 1022.07 1021.61 1021.09 1020.51 1019.86 1019.17 1018.46 1017.76 1017.09 1016.47 1015.92 1015.43 1014.99 1014.57
1015.23 1016.18 1017.04 1017.82 1018.50 1019.11 1019.67 1020.20 1020.72 1021.25 1021.79 1022.33 1022.84 1023.30 1023.68 1023.96 1024.13 1024.20 1024.16 1024.04 1023.85 1023.59 1023.29 1022.93 1022.52 1022.03 1021.47 1020.82 1020.11 1019.35 1018.56 1017.78 1017.03 1016.34 1015.71 1015.17 1014.68 1014.23
1015.90 1016.85 1017.72 1018.50 1019.19 1019.79 1020.35 1020.86 1021.36 1021.86 1022.35 1022.84 1023.29 1023.70 1024.04 1024.29 1024.45 1024.51 1024.48 1024.38 1024.21 1023.97 1023.68 1023.33 1022.91 1022.41 1021.82 1021.15 1020.40 1019.59 1018.74 1017.90 1017.09 1016.33 1015.64 1015.02 1014.47 1013.97
1016.51 1017.46 1018.33 1019.11 1019.82 1020.44 1020.99 1021.51 1021.99 1022.47 1022.93 1023.36 1023.77 1024.13 1024.42 1024.63 1024.76 1024.80 1024.76 1024.65 1024.48 1024.25 1023.96 1023.61 1023.20 1022.70 1022.11 1021.43 1020.66 1019.83 1018.96 1018.09 1017.23 1016.42 1015.67 1014.99 1014.37 1013.80
1017.07 1018.02 1018.90 1019.70 1020.42 1021.05 1021.62 1022.14 1022.63 1023.08 1023.51 1023.91 1024.27 1024.58 1024.81 1024.97 1025.05 1025.05 1024.98 1024.84 1024.64 1024.40 1024.11 1023.76 1023.34 1022.85 1022.27 1021.60 1020.85 1020.03 1019.17 1018.28 1017.40 1016.55 1015.75 1015.01 1014.33 1013.68
1017.62 1018.57 1019.46 1020.27 1021.00 1021.66 1022.24 1022.77 1023.25 1023.70 1024.10 1024.47 1024.78 1025.03 1025.21 1025.31 1025.32 1025.27 1025.14 1024.96 1024.72 1024.45 1024.13 1023.76 1023.34 1022.85 1022.29 1021.65 1020.92 1020.13 1019.28 1018.41 1017.53 1016.67 1015.84 1015.05 1014.30 1013.59
1018.19 1019.14 1020.03 1020.85 1021.59 1022.25 1022.84 1023.38 1023.86 1024.29 1024.67 1025.01 1025.27 1025.47 1025.59 1025.63 1025.58 1025.46 1025.27 1025.03 1024.74 1024.41 1024.05 1023.66 1023.22 1022.72 1022.17 1021.55 1020.85 1020.09 1019.28 1018.43 1017.57 1016.70 1015.86 1015.04 1014.24 1013.48
1018.79 1019.73 1020.61 1021.43 1022.16 1022.82 1023.42 1023.94 1024.42 1024.83 1025.20 1025.50 1025.73 1025.89 1025.96 1025.94 1025.83 1025.64 1025.39 1025.08 1024.73 1024.34 1023.93 1023.48 1023.01 1022.50 1021.94 1021.32 1020.64 1019.91 1019.13 1018.31 1017.47 1016.61 1015.77 1014.93 1014.11 1013.31
1019.45 1020.36 1021.21 1022.00 1022.71 1023.35 1023.93 1024.44 1024.90 1025.31 1025.65 1025.93 1026.13 1026.26 1026.29 1026.22 1026.07 1025.83 1025.52 1025.15 1024.73 1024.28 1023.80 1023.30 1022.78 1022.23 1021.64 1021.01 1020.34 1019.61 1018.85 1018.05 1017.23 1016.39 1015.55 1014.72 1013.89 1013.08
1020.14 1021.00 1021.80 1022.55 1023.22 1023.83 1024.37 1024.87 1025.31 1025.69 1026.02 1026.28 1026.47 1026.57 1026.58 1026.49 1026.30 1026.03 1025.67 1025.25 1024.77 1024.26 1023.71 1023.15 1022.57 1021.96 1021.33 1020.67 1019.98 1019.25 1018.49 1017.70 1016.89 1016.07 1015.25 1014.43 1013.61 1012.81
1020.84 1021.64 1022.38 1023.06 1023.68 1024.24 1024.75 1025.21 1025.63 1025.99 1026.31 1026.55 1026.73 1026.82 1026.82 1026.72 1026.51 1026.22 1025.83 1025.37 1024.85 1024.28 1023.68 1023.05 1022.40 1021.74 1021.06 1020.35 1019.63 1018.88 1018.11 1017.32 1016.52 1015.71 1014.91 1014.10 1013.31 1012.53
1021.54 1022.26 1022.92 1023.53 1024.09 1024.59 1025.06 1025.49 1025.88 1026.22 1026.52 1026.76 1026.93 1027.02 1027.01 1026.90 1026.69 1026.38 1025.98 1025.49 1024.94 1024.33 1023.68 1023.00 1022.29 1021.57 1020.84 1020.09 1019.33 1018.55 1017.77 1016.98 1016.18 1015.39 1014.60 1013.82 1013.05 1012.31
1022.20 1022.83 1023.42 1023.95 1024.45 1024.91 1025.33 1025.72 1026.08 1026.40 1026.68 1026.91 1027.07 1027.15 1027.13 1027.02 1026.81 1026.49 1026.08 1025.58 1025.00 1024.37 1023.68 1022.96 1022.22 1021.45 1020.68 1019.90 1019.11 1018.32 1017.52 1016.73 1015.94 1015.17 1014.40 1013.65 1012.92 1012.20
1022.81 1023.36 1023.87 1024.34 1024.78 1025.18 1025.56 1025.91 1026.24 1026.54 1026.80 1027.00 1027.14 1027.21 1027.18 1027.06 1026.84 1026.51 1026.10 1025.59 1025.00 1024.35 1023.65 1022.92 1022.15 1021.37 1020.58 1019.79 1018.99 1018.20 1017.41 1016.63 1015.86 1015.11 1014.37 1013.65 1012.96 1012.28
Thickness
5489 5489 5488 5488 5487 5487 5487 5487 5485 5486 5490 5491 5491 5491 5490 5490 5490 5491 5492 5492 5492 5492 5493 5493 5493 5493 5493 5493 5493 5493 5493 5493 5493 5494 5494 5496 5497 5498
5478 5478 5478 5477 5477 5476 5476 5476 5475 5474 5475 5478 5478 5478 5478 5478 5478 5479 5480 5480 5480 5481 5481 5481 5481 5481 5481 5481 5481 5481 5481 5481 5480 5480 5481 5483 5484 5486
5468 5467 5467 5467 5466 5466 5465 5465 5464 5463 5463 5464 5465 5465 5465 5465 5466 5467 5468 5468 5469 5468 5469 5470 5470 5470 5470 5470 5469 5469 5468 5468 5468 5468 5469 5470 5473 5475
5457 5456 5456 5456 5455 5454 5454 5453 5453 5452 5451 5451 5452 5453 5453 5454 5455 5455 5456 5457 5457 5457 5457 5458 5458 5458 5458 5458 5457 5457 5456 5456 5456 5457 5458 5460 5462 5463
5446 5446 5446 5445 5444 5443 5443 5442 5442 5442 5441 5440 5440 5441 5442 5443 5443 5444 5444 5445 5445 5446 5446 5447 5447 5447 5447 5446 5445 5445 5445 5445 5445 5446 5447 5449 5450 5452
5436 5436 5436 5435 5434 5433 5432 5432 5431 5431 5430 5430 5430 5430 5431 5432 5432 5432 5432 5433 5433 5435 5435 5435 5436 5436 5436 5435 5435 5434 5433 5434 5434 5436 5437 5438 5440 5442
5426 5425 5425 5425 5424 5424 5423 5422 5422 5421 5420 5420 5420 5420 5420 5420 5420 5420 5420 5421 5422 5423 5423 5424 5425 5425 5425 5424 5423 5423 5423 5423 5424 5425 5427 5428 5430 5432
5416 5415 5415 5415 5415 5415 5415 5414 5413 5412 5411 5411 5410 5410 5411 5410 5410 5410 5409 5409 5410 5411 5411 5413 5413 5414 5414 5413 5413 5413 5413 5414 5414 5415 5417 5418 5420 5422
5406 5406 5406 5407 5406 5406 5405 5405 5404 5404 5404 5402 5402 5401 5401 5401 5400 5399 5399 5398 5399 5400 5401 5403 5403 5404 5404 5404 5403 5403 5404 5404 5405 5406 5407 5409 5411 5413
5397 5397 5397 5397 5397 5396 5396 5395 5395 5395 5395 5395 5395 5394 5393 5392 5391 5391 5390 5390 5390 5390 5391 5391 5393 5393 5395 5394 5393 5394 5394 5395 5396 5398 5399 5401 5403 5404
5389 5388 5388 5388 5389 5389 5388 5387 5387 5387 5387 5387 5387 5386 5386 5385 5383 5382 5381 5380 5381 5381 5381 5380 5382 5383 5385 5385 5385 5385 5385 5386 5387 5389 5390 5392 5395 5396
5381 5381 5381 5381 5381 5381 5380 5379 5378 5379 5378 5379 5379 5378 5377 5377 5376 5375 5373 5372 5372 5372 5373 5372 5372 5372 5375 5377 5376 5375 5376 5377 5378 5380 5382 5384 5386 5388
5374 5374 5374 5374 5375 5375 5374 5372 5372 5371 5370 5370 5370 5370 5369 5369 5369 5368 5367 5366 5365 5365 5365 5364 5364 5363 5362 5366 5368 5368 5368 5369 5370 5372 5374 5376 5378 5379
5367 5367 5367 5367 5368 5368 5367 5366 5365 5364 5363 5362 5362 5362 5362 5362 5362 5362 5362 5361 5361 5360 5359 5357 5356 5356 5355 5357 5359 5361 5360 5361 5362 5364 5366 5368 5370 5371
5360 5360 5360 5361 5361 5360 5360 5359 5358 5356 5355 5355 5355 5355 5356 5356 5356 5356 5356 5356 5355 5354 5353 5352 5351 5350 5349 5349 5351 5352 5353 5355 5356 5357 5359 5361 5362 5364
5353 5353 5354 5354 5354 5354 5353 5352 5351 5350 5350 5349 5349 5349 5349 5350 5350 5350 5350 5349 5348 5347 5347 5346 5345 5344 5343 5343 5344 5345 5346 5347 5349 5350 5352 5354 5356 5357
5347 5346 5345 5345 5345 5346 5346 5345 5345 5344 5344 5344 5344 5343 5343 5344 5344 5344 5343 5342 5341 5341 5340 5339 5339 5339 5338 5338 5338 5340 5341 5342 5343 5344 5345 5348 5350 5351
5341 5340 5340 5339 5339 5340 5340 5340 5339 5339 5339 5339 5338 5338 5338 5338 5338 5337 5337 5336 5335 5334 5334 5333 5333 5333 5333 5334 5334 5335 5336 5337 5338 5339 5339 5341 5344 5346
5335 5334 5334 5333 5333 5334 5334 5334 5334 5334 5334 5334 5333 5333 5333 5333 5332 5331 5331 5330 5329 5328 5328 5327 5326 5327 5328 5329 5330 5331 5331 5332 5333 5334 5335 5336 5338 5341
5330 5329 5329 5329 5329 5329 5329 5329 5329 5329 5329 5329 5329 5328 5328 5328 5327 5326 5325 5324 5324 5323 5323 5322 5322 5323 5324 5324 5325 5327 5327 5328 5329 5330 5332 5333 5335 5337
5324 5324 5324 5324 5325 5325 5325 5325 5324 5324 5324 5324 5324 5324 5323 5323 5322 5321 5321 5320 5320 5319 5319 5320 5320 5320 5320 5321 5322 5323 5324 5325 5326 5326 5328 5330 5332 5334
5320 5320 5320 5320 5321 5321 5321 5321 5321 5321 5320 5320 5320 5320 5319 5319 5318 5318 5317 5317 5317 5317 5317 5317 5318 5318 5318 5319 5319 5320 5322 5323 5324 5325 5326 5327 5328 5330
5315 5316 5317 5317 5318 5318 5317 5317 5317 5317 5317 5317 5316 5316 5316 5316 5315 5315 5315 5315 5314 5314 5315 5315 5316 5316 5316 5316 5317 5318 5319 5321 5323 5324 5325 5327 5328 5330